SV4RJA-13 Weather Reports


time (UTC)temp
C
wind
direction
speed
KPH
gust
KPH
rain 1hr
cm
rain 24hr
cm
rain mn
cm
humidity
%
barometer
mb
20260507161912 22 0.0 0.0 0.00 0.00 0.00 82 1017.8
20260507160913 22 0.0 0.0 0.00 0.00 0.00 83 1017.7
20260507155913 22 0.0 0.0 0.00 0.00 0.00 79 1017.6
20260507154913 22 0.0 0.0 0.00 0.00 0.00 79 1017.7
20260507153913 22 0.0 0.0 0.00 0.00 0.00 79 1017.6
20260507152913 22 0.0 0.0 0.00 0.00 0.00 78 1017.9
20260507151913 22 0.0 0.0 0.00 0.00 0.00 74 1017.9
20260507150920 23 0.0 0.0 0.00 0.00 0.00 74 1017.9
20260507144913 22 0.0 0.0 0.00 0.00 0.00 71 1017.9
20260507143912 22 0.0 0.0 0.00 0.00 0.00 74 1017.8
20260507142911 23 0.0 0.0 0.00 0.00 0.00 68 1017.8
20260507141912 23 0.0 0.0 0.00 0.00 0.00 72 1017.8
20260507140913 23 0.0 0.0 0.00 0.00 0.00 65 1017.7
20260507135912 23 0.0 0.0 0.00 0.00 0.00 65 1017.8
20260507132912 22 0.0 0.0 0.00 0.00 0.00 66 1017.7
20260507131912 23 0.0 0.0 0.00 0.00 0.00 65 1017.9
20260507130912 23 0.0 0.0 0.00 0.00 0.00 55 1017.9
20260507125913 24 0.0 0.0 0.00 0.00 0.00 58 1018.0
20260507124912 25 0.0 0.0 0.00 0.00 0.00 50 1018.0
20260507123912 23 0.0 0.0 0.00 0.00 0.00 58 1018.3
20260507122912 23 0.0 0.0 0.00 0.00 0.00 64 1018.3
20260507121913 23 0.0 0.0 0.00 0.00 0.00 67 1018.1
20260507120912 23 0.0 0.0 0.00 0.00 0.00 67 1018.4
20260507115912 24 0.0 0.0 0.00 0.00 0.00 65 1018.5
20260507114913 23 0.0 0.0 0.00 0.00 0.00 64 1018.8
20260507113913 23 0.0 0.0 0.00 0.00 0.00 61 1019.1
20260507112913 24 0.0 0.0 0.00 0.00 0.00 54 1019.1
20260507111912 24 0.0 0.0 0.00 0.00 0.00 58 1019.2
20260507105912 22 0.0 0.0 0.00 0.00 0.00 68 1018.9
20260507104912 22 0.0 0.0 0.00 0.00 0.00 71 1018.7
20260507103912 22 0.0 0.0 0.00 0.00 0.00 73 1018.7
20260507102912 22 0.0 0.0 0.00 0.00 0.00 71 1018.4
20260507101911 22 0.0 0.0 0.00 0.00 0.00 64 1018.2
20260507100912 22 0.0 0.0 0.00 0.00 0.00 62 1018.5
20260507095913 23 0.0 0.0 0.00 0.00 0.00 59 1018.5
20260507094913 23 0.0 0.0 0.00 0.00 0.00 53 1018.6
20260507093913 25 0.0 0.0 0.00 0.00 0.00 49 1018.5
20260507092913 25 0.0 0.0 0.00 0.00 0.00 50 1018.4
20260507091913 26 0.0 0.0 0.00 0.00 0.00 50 1018.3
20260507090911 26 0.0 0.0 0.00 0.00 0.00 54 1018.3
20260507084912 25 0.0 0.0 0.00 0.00 0.00 57 1018.3
20260507083912 25 0.0 0.0 0.00 0.00 0.00 53 1018.3
20260507082911 25 0.0 0.0 0.00 0.00 0.00 52 1018.1
20260507080913 26 0.0 0.0 0.00 0.00 0.00 51 1018.1
20260507075911 26 0.0 0.0 0.00 0.00 0.00 48 1018.0
20260507073912 25 0.0 0.0 0.00 0.00 0.00 51 1017.7
20260507071912 25 0.0 0.0 0.00 0.00 0.00 54 1017.9
20260507070912 25 0.0 0.0 0.00 0.00 0.00 51 1018.0
20260507064913 25 0.0 0.0 0.00 0.00 0.00 59 1018.1
20260507063912 23 0.0 0.0 0.00 0.00 0.00 63 1018.2
20260507062914 23 0.0 0.0 0.00 0.00 0.00 65 1018.2
20260507061913 23 0.0 0.0 0.00 0.00 0.00 66 1018.1
20260507060912 23 0.0 0.0 0.00 0.00 0.00 67 1017.8
20260507054913 23 0.0 0.0 0.00 0.00 0.00 67 1017.7
20260507053913 22 0.0 0.0 0.00 0.00 0.00 62 1017.5
20260507052914 20 0.0 0.0 0.00 0.00 0.00 78 1017.5
20260507051914 18 0.0 0.0 0.00 0.00 0.00 86 1017.4
20260507050914 16 0.0 0.0 0.00 0.00 0.00 10 1017.4
20260507045913 15 0.0 0.0 0.00 0.00 0.00 10 1017.1
20260507044912 15 0.0 0.0 0.00 0.00 0.00 10 1017.0
20260507043911 15 0.0 0.0 0.00 0.00 0.00 10 1017.1
20260507041912 16 0.0 0.0 0.00 0.00 0.00 98 1017.2
20260507040913 15 0.0 0.0 0.00 0.00 0.00 10 1017.1
20260507035912 14 0.0 0.0 0.00 0.00 0.00 10 1017.2
20260507034913 13 0.0 0.0 0.00 0.00 0.00 10 1017.1
20260507033912 14 0.0 0.0 0.00 0.00 0.00 10 1017.1
20260507031912 13 0.0 0.0 0.00 0.00 0.00 10 1016.3
20260507030913 13 0.0 0.0 0.00 0.00 0.00 10 1016.7
20260507025912 13 0.0 0.0 0.00 0.00 0.00 10 1016.7
20260507024913 13 0.0 0.0 0.00 0.00 0.00 10 1016.7
20260507023912 14 0.0 0.0 0.00 0.00 0.00 10 1016.6
20260507015913 13 0.0 0.0 0.00 0.00 0.00 10 1016.4
20260507014911 13 0.0 0.0 0.00 0.00 0.00 10 1016.0
20260507012913 14 0.0 0.0 0.00 0.00 0.00 10 1016.1
20260507011912 15 0.0 0.0 0.00 0.00 0.00 10 1016.1
20260507010912 15 0.0 0.0 0.00 0.00 0.00 10 1016.0
20260507005912 14 0.0 0.0 0.00 0.00 0.00 10 1015.8
20260507004913 14 0.0 0.0 0.00 0.00 0.00 10 1016.0
20260507003912 13 0.0 0.0 0.00 0.00 0.00 10 1015.6
20260507002912 13 0.0 0.0 0.00 0.00 0.00 10 1015.6
20260507001912 14 0.0 0.0 0.00 0.00 0.00 10 1015.8
20260507000911 14 0.0 0.0 0.00 0.00 0.00 10 1015.8
20260506235911 15 0.0 0.0 0.00 0.00 0.00 99 1015.7
20260506234912 16 0.0 0.0 0.00 0.00 0.00 96 1016.0
20260506233912 15 0.0 0.0 0.00 0.00 0.00 10 1016.1
20260506232913 15 0.0 0.0 0.00 0.00 0.00 10 1016.1
20260506231912 15 0.0 0.0 0.00 0.00 0.00 10 1016.3
20260506230912 15 0.0 0.0 0.00 0.00 0.00 10 1016.2
20260506225912 16 0.0 0.0 0.00 0.00 0.00 10 1016.2
20260506224912 16 0.0 0.0 0.00 0.00 0.00 10 1016.2
20260506223913 16 0.0 0.0 0.00 0.00 0.00 99 1016.3
20260506222912 16 0.0 0.0 0.00 0.00 0.00 98 1016.4
20260506220912 16 0.0 0.0 0.00 0.00 0.00 10 1016.4
20260506215913 16 0.0 0.0 0.00 0.00 0.00 10 1016.4
20260506214913 16 0.0 0.0 0.00 0.00 0.00 10 1016.4
20260506213911 16 0.0 0.0 0.00 0.00 0.00 10 1016.4
20260506211913 16 0.0 0.0 0.00 0.00 0.00 10 1016.4
20260506210912 17 0.0 0.0 0.00 0.00 0.00 98 1016.6
20260506205913 17 0.0 0.0 0.00 0.00 0.00 99 1016.4
20260506204913 17 0.0 0.0 0.00 0.00 0.00 95 1016.3
20260506203911 18 0.0 0.0 0.00 0.00 0.00 93 1016.5
20260506200913 19 0.0 0.0 0.00 0.00 0.00 81 1016.2
20260506195913 19 0.0 0.0 0.00 0.00 0.00 72 1016.1
20260506194912 19 0.0 0.0 0.00 0.00 0.00 70 1016.2
20260506193911 20 0.0 0.0 0.00 0.00 0.00 79 1016.2
20260506191912 20 0.0 0.0 0.00 0.00 0.00 75 1016.1
20260506190912 20 0.0 0.0 0.00 0.00 0.00 72 1016.0
20260506185913 20 0.0 0.0 0.00 0.00 0.00 72 1015.9
20260506184913 20 0.0 0.0 0.00 0.00 0.00 73 1015.8
20260506183912 20 0.0 0.0 0.00 0.00 0.00 73 1015.6
20260506182913 20 0.0 0.0 0.00 0.00 0.00 77 1015.6
20260506181914 20 0.0 0.0 0.00 0.00 0.00 78 1015.4
20260506180913 20 0.0 0.0 0.00 0.00 0.00 85 1015.3
20260506175913 20 0.0 0.0 0.00 0.00 0.00 84 1015.1
20260506174913 20 0.0 0.0 0.00 0.00 0.00 82 1015.0
20260506173912 20 0.0 0.0 0.00 0.00 0.00 80 1015.0
20260506172913 20 0.0 0.0 0.00 0.00 0.00 77 1015.0
20260506171913 21 0.0 0.0 0.00 0.00 0.00 74 1015.0
20260506170911 21 0.0 0.0 0.00 0.00 0.00 71 1014.9
20260506163911 22 0.0 0.0 0.00 0.00 0.00 65 1014.8